timestamp,wind_dir_avg,wind_spd_avg,wind_spd_max_dir,wind_spd_gust,battery_voltage,lat,long
2021-07-11 00:04:01+00:00,226.0,8.13,224.0,9.5,12.81,47.59359,-54.27349
2021-07-11 00:14:01+00:00,234.0,8.08,234.0,8.92,12.65,47.59359,-54.27349
2021-07-11 00:24:01+00:00,244.0,7.17,243.0,8.0,12.65,47.59359,-54.27349
2021-07-11 00:34:01+00:00,248.0,5.82,250.0,6.7,12.65,47.59359,-54.27349
2021-07-11 00:44:01+00:00,244.0,4.83,246.0,5.82,12.65,47.59359,-54.27349
2021-07-11 00:54:01+00:00,172.0,3.21,173.0,4.5,12.65,47.59359,-54.27349
2021-07-11 01:04:01+00:00,181.0,7.64,183.0,8.17,12.65,47.59359,-54.27349
2021-07-11 01:14:01+00:00,186.0,5.81,186.0,6.42,12.65,47.59359,-54.27349
2021-07-11 01:24:01+00:00,186.0,6.04,187.0,6.56,12.65,47.59359,-54.27349
2021-07-11 01:34:01+00:00,199.0,6.53,202.0,7.08,12.65,47.59359,-54.27349
2021-07-11 01:44:01+00:00,202.0,5.6,197.0,6.14,12.65,47.59359,-54.27349
2021-07-11 01:54:01+00:00,200.0,4.65,200.0,5.23,12.65,47.59359,-54.27349
2021-07-11 02:04:01+00:00,213.0,5.15,214.0,5.59,12.65,47.59359,-54.27349
2021-07-11 02:14:01+00:00,229.0,4.39,231.0,4.59,12.65,47.59359,-54.27349
2021-07-11 02:24:01+00:00,223.0,3.97,226.0,4.29,12.65,47.59359,-54.27349
2021-07-11 02:34:01+00:00,201.0,5.37,203.0,5.75,12.65,47.59359,-54.27349
2021-07-11 02:44:01+00:00,207.0,5.24,207.0,5.68,12.65,47.59359,-54.27349
2021-07-11 02:54:01+00:00,205.0,5.28,202.0,5.94,12.65,47.59359,-54.27349
2021-07-11 03:04:01+00:00,214.0,5.68,216.0,6.14,12.65,47.59359,-54.27349
2021-07-11 03:14:01+00:00,215.0,6.74,216.0,7.3,12.57,47.59359,-54.27349
2021-07-11 03:24:01+00:00,218.0,6.11,219.0,7.13,12.57,47.59359,-54.27349
2021-07-11 03:34:01+00:00,217.0,6.38,222.0,6.92,12.57,47.59359,-54.27349
2021-07-11 03:44:01+00:00,212.0,7.83,213.0,8.5,12.57,47.59359,-54.27349
2021-07-11 03:54:01+00:00,220.0,6.08,222.0,6.75,12.57,47.59359,-54.27349
2021-07-11 04:04:01+00:00,210.0,7.58,209.0,8.25,12.57,47.59359,-54.27349
2021-07-11 04:14:01+00:00,213.0,5.91,210.0,7.22,12.57,47.59359,-54.27349
2021-07-11 04:24:01+00:00,208.0,7.06,207.0,7.8,12.57,47.59359,-54.27349
2021-07-11 04:34:01+00:00,214.0,6.06,215.0,6.55,12.57,47.59359,-54.27349
2021-07-11 04:44:01+00:00,213.0,5.49,214.0,6.06,12.57,47.59359,-54.27349
2021-07-11 04:54:01+00:00,209.0,5.0,209.0,5.69,12.57,47.59359,-54.27349
2021-07-11 05:04:01+00:00,213.0,4.97,206.0,6.4,12.57,47.59359,-54.27349
2021-07-11 05:14:01+00:00,225.0,3.74,224.0,4.13,12.57,47.59359,-54.27349
2021-07-11 05:24:01+00:00,226.0,4.29,217.0,4.93,12.57,47.59359,-54.27349
2021-07-11 05:34:01+00:00,220.0,5.32,220.0,6.01,12.57,47.59359,-54.27349
2021-07-11 05:44:01+00:00,218.0,5.98,219.0,6.55,12.57,47.59359,-54.27349
2021-07-11 05:54:01+00:00,220.0,6.03,224.0,6.91,12.57,47.59359,-54.27349
2021-07-11 06:04:01+00:00,225.0,6.42,225.0,7.24,12.57,47.59359,-54.27349
2021-07-11 06:14:00+00:00,222.0,5.69,227.0,6.72,12.57,47.59359,-54.27349
2021-07-11 06:24:00+00:00,226.0,5.17,226.0,6.07,12.57,47.59359,-54.27349
2021-07-11 06:34:00+00:00,225.0,6.25,227.0,6.95,12.57,47.59359,-54.27349
2021-07-11 06:44:00+00:00,217.0,4.77,223.0,5.71,12.57,47.59359,-54.27349
2021-07-11 06:54:00+00:00,230.0,2.87,221.0,3.54,12.57,47.59359,-54.27349
2021-07-11 07:04:00+00:00,210.0,3.4,215.0,4.7,12.57,47.59359,-54.27349
2021-07-11 07:14:00+00:00,213.0,4.35,216.0,5.38,12.49,47.59359,-54.27349
2021-07-11 07:24:00+00:00,213.0,4.42,215.0,5.22,12.49,47.59359,-54.27349
2021-07-11 07:34:00+00:00,178.0,2.43,189.0,2.98,12.49,47.59359,-54.27349
2021-07-11 07:44:00+00:00,187.0,3.1,197.0,3.5,12.49,47.59359,-54.27349
2021-07-11 07:54:00+00:00,190.0,3.86,194.0,4.14,12.49,47.59359,-54.27349
2021-07-11 08:04:00+00:00,193.0,2.44,191.0,2.8,12.49,47.59359,-54.27349
2021-07-11 08:14:00+00:00,185.0,2.98,187.0,3.21,12.49,47.59359,-54.27349
2021-07-11 08:24:00+00:00,192.0,2.84,192.0,3.01,12.49,47.59359,-54.27349
2021-07-11 08:34:00+00:00,206.0,2.21,208.0,2.4,12.49,47.59359,-54.27349
2021-07-11 08:44:00+00:00,169.0,1.49,171.0,1.57,12.49,47.59359,-54.27349
2021-07-11 08:54:00+00:00,88.0,1.01,117.0,1.71,12.49,47.59359,-54.27349
2021-07-11 09:04:00+00:00,59.0,1.07,74.0,1.26,12.49,47.59359,-54.27349
2021-07-11 09:14:00+00:00,50.0,1.09,57.0,1.21,12.49,47.59359,-54.27349
2021-07-11 09:24:00+00:00,12.0,0.83,11.0,1.0,12.49,47.59359,-54.27349
2021-07-11 09:34:00+00:00,11.0,0.79,10.0,0.94,12.49,47.59359,-54.27349
2021-07-11 09:44:00+00:00,74.0,0.51,76.0,0.67,12.49,47.59359,-54.27349
2021-07-11 09:54:00+00:00,231.0,0.94,234.0,1.0,12.49,47.59359,-54.27349
2021-07-11 10:04:00+00:00,279.0,1.24,276.0,1.51,12.49,47.59359,-54.27349
2021-07-11 10:14:00+00:00,231.0,1.5,233.0,1.64,12.49,47.59359,-54.27349
2021-07-11 10:24:00+00:00,237.0,1.83,239.0,2.1,12.49,47.59359,-54.27349
2021-07-11 10:34:00+00:00,244.0,0.48,256.0,0.61,12.49,47.59359,-54.27349
2021-07-11 10:44:00+00:00,312.0,0.87,312.0,0.99,12.49,47.59359,-54.27349
2021-07-11 10:54:00+00:00,350.0,2.03,344.0,2.3,12.49,47.59359,-54.27349
2021-07-11 11:04:00+00:00,21.0,2.07,25.0,2.96,12.49,47.59359,-54.27349
2021-07-11 11:14:01+00:00,46.0,3.35,38.0,3.98,13.21,47.59359,-54.27349
2021-07-11 11:24:01+00:00,58.0,2.93,63.0,3.39,13.21,47.59359,-54.27349
2021-07-11 11:34:01+00:00,45.0,2.32,48.0,2.58,13.21,47.59359,-54.27349
2021-07-11 11:44:01+00:00,41.0,2.45,46.0,2.68,13.21,47.59359,-54.27349
2021-07-11 11:54:01+00:00,19.0,2.83,19.0,3.17,13.21,47.59359,-54.27349
2021-07-11 12:04:01+00:00,38.0,2.41,40.0,2.7,13.21,47.59359,-54.27349
2021-07-11 12:14:00+00:00,55.0,2.34,52.0,2.58,13.76,47.59359,-54.27349
2021-07-11 12:24:00+00:00,19.0,3.11,19.0,3.38,13.76,47.59359,-54.27349
2021-07-11 12:34:00+00:00,44.0,2.63,45.0,2.85,13.76,47.59359,-54.27349
2021-07-11 12:44:00+00:00,44.0,2.96,43.0,3.12,13.76,47.59359,-54.27349
2021-07-11 12:54:00+00:00,41.0,3.03,41.0,3.39,13.76,47.59359,-54.27349
2021-07-11 13:04:00+00:00,41.0,3.25,41.0,3.46,13.76,47.59359,-54.27349
2021-07-11 13:14:00+00:00,40.0,3.36,41.0,3.59,14.24,47.59359,-54.27349
2021-07-11 13:24:00+00:00,50.0,2.5,48.0,2.85,14.24,47.59359,-54.27349
2021-07-11 13:34:00+00:00,41.0,2.56,43.0,2.88,14.24,47.59359,-54.27349
2021-07-11 13:44:00+00:00,36.0,2.77,38.0,3.08,14.24,47.59359,-54.27349
2021-07-11 13:54:00+00:00,29.0,2.65,28.0,3.17,14.24,47.59359,-54.27349
2021-07-11 14:04:00+00:00,40.0,2.5,38.0,2.81,14.24,47.59359,-54.27349
2021-07-11 14:14:01+00:00,39.0,2.89,43.0,3.29,14.24,47.59359,-54.27349
2021-07-11 14:24:01+00:00,36.0,3.35,37.0,3.64,14.24,47.59359,-54.27349
2021-07-11 14:34:01+00:00,47.0,2.97,49.0,3.27,14.24,47.59359,-54.27349
2021-07-11 14:44:01+00:00,39.0,2.98,44.0,3.23,14.24,47.59359,-54.27349
2021-07-11 14:54:01+00:00,38.0,2.68,31.0,3.54,14.24,47.59359,-54.27349
2021-07-11 15:04:01+00:00,43.0,2.24,43.0,2.38,14.24,47.59359,-54.27349
2021-07-11 15:14:01+00:00,45.0,2.26,52.0,2.79,13.68,47.59359,-54.27349
2021-07-11 15:24:01+00:00,45.0,2.17,48.0,2.32,13.68,47.59359,-54.27349
2021-07-11 15:34:01+00:00,37.0,1.6,39.0,2.02,13.68,47.59359,-54.27349
2021-07-11 15:44:01+00:00,39.0,1.76,41.0,1.97,13.68,47.59359,-54.27349
2021-07-11 15:54:01+00:00,34.0,1.74,36.0,2.18,13.68,47.59359,-54.27349
2021-07-11 16:04:01+00:00,35.0,1.61,36.0,1.89,13.68,47.59359,-54.27349
2021-07-11 16:14:01+00:00,14.0,1.71,17.0,1.85,13.76,47.59359,-54.27349
2021-07-11 16:24:01+00:00,18.0,1.29,29.0,1.55,13.76,47.59359,-54.27349
2021-07-11 16:34:01+00:00,57.0,1.27,58.0,1.53,13.76,47.59359,-54.27349
2021-07-11 16:44:01+00:00,51.0,1.41,41.0,1.7,13.76,47.59359,-54.27349
2021-07-11 16:54:01+00:00,201.0,0.61,197.0,0.95,13.76,47.59359,-54.27349
2021-07-11 17:04:01+00:00,185.0,0.49,190.0,0.7,13.76,47.59359,-54.27349
2021-07-11 17:14:01+00:00,205.0,0.95,208.0,1.04,14.08,47.59359,-54.27349
2021-07-11 17:24:01+00:00,209.0,1.9,211.0,2.22,14.08,47.59359,-54.27349
2021-07-11 17:34:01+00:00,225.0,2.38,226.0,2.64,14.08,47.59359,-54.27349
2021-07-11 17:44:01+00:00,249.0,3.36,249.0,3.45,14.08,47.59359,-54.27349
2021-07-11 17:54:01+00:00,250.0,3.74,251.0,3.87,14.08,47.59359,-54.27349
2021-07-11 18:04:01+00:00,241.0,3.76,243.0,3.92,14.08,47.59359,-54.27349
2021-07-11 18:14:01+00:00,229.0,2.91,217.0,3.41,13.84,47.59359,-54.27349
2021-07-11 18:24:01+00:00,212.0,3.76,214.0,3.96,13.84,47.59359,-54.27349
2021-07-11 18:34:01+00:00,207.0,3.82,202.0,4.72,13.84,47.59359,-54.27349
2021-07-11 18:44:01+00:00,207.0,4.17,213.0,4.43,13.84,47.59359,-54.27349
2021-07-11 18:54:01+00:00,200.0,5.13,196.0,6.67,13.84,47.59359,-54.27349
2021-07-11 19:04:01+00:00,198.0,5.31,194.0,7.16,13.84,47.59359,-54.27349
2021-07-11 19:14:01+00:00,196.0,5.0,196.0,5.55,13.84,47.59359,-54.27349
2021-07-11 19:24:01+00:00,202.0,4.81,204.0,5.26,13.84,47.59359,-54.27349
2021-07-11 19:34:01+00:00,197.0,5.14,200.0,5.6,13.84,47.59359,-54.27349
2021-07-11 19:44:01+00:00,205.0,6.01,202.0,6.75,13.84,47.59359,-54.27349
2021-07-11 19:54:01+00:00,208.0,6.57,208.0,7.22,13.84,47.59359,-54.27349
2021-07-11 20:04:01+00:00,208.0,7.56,209.0,8.08,13.84,47.59359,-54.27349
2021-07-11 20:14:01+00:00,206.0,7.7,203.0,8.26,13.84,47.59359,-54.27349
2021-07-11 20:24:01+00:00,208.0,7.91,205.0,8.62,13.84,47.59359,-54.27349
2021-07-11 20:34:01+00:00,210.0,7.55,214.0,8.26,13.84,47.59359,-54.27349
2021-07-11 20:44:01+00:00,205.0,7.17,208.0,8.07,13.84,47.59359,-54.27349
2021-07-11 20:54:01+00:00,213.0,7.39,214.0,8.27,13.84,47.59359,-54.27349
2021-07-11 21:04:01+00:00,208.0,7.21,207.0,8.06,13.84,47.59359,-54.27349
2021-07-11 21:14:01+00:00,201.0,5.94,200.0,6.95,13.84,47.59359,-54.27349
2021-07-11 21:24:01+00:00,208.0,6.95,211.0,7.59,13.84,47.59359,-54.27349
2021-07-11 21:34:01+00:00,207.0,7.76,211.0,8.71,13.84,47.59359,-54.27349
2021-07-11 21:44:01+00:00,205.0,6.93,207.0,8.06,13.84,47.59359,-54.27349
2021-07-11 21:54:01+00:00,193.0,6.56,196.0,6.92,13.84,47.59359,-54.27349
2021-07-11 22:04:01+00:00,201.0,7.6,201.0,8.45,13.84,47.59359,-54.27349
2021-07-11 22:14:01+00:00,206.0,8.01,205.0,8.73,13.6,47.59359,-54.27349
2021-07-11 22:24:01+00:00,212.0,8.3,214.0,9.37,13.6,47.59359,-54.27349
2021-07-11 22:34:01+00:00,204.0,7.33,209.0,8.21,13.6,47.59359,-54.27349
2021-07-11 22:44:01+00:00,203.0,6.75,206.0,7.5,13.6,47.59359,-54.27349
2021-07-11 22:54:01+00:00,204.0,7.32,206.0,8.27,13.6,47.59359,-54.27349
2021-07-11 23:04:01+00:00,207.0,7.27,207.0,8.05,13.6,47.59359,-54.27349
2021-07-11 23:14:01+00:00,207.0,7.32,210.0,8.48,13.29,47.59359,-54.27349
2021-07-11 23:24:01+00:00,207.0,7.83,201.0,9.7,13.29,47.59359,-54.27349
2021-07-11 23:34:01+00:00,205.0,7.25,205.0,7.97,13.29,47.59359,-54.27349
2021-07-11 23:44:01+00:00,209.0,7.3,204.0,8.66,13.29,47.59359,-54.27349
2021-07-11 23:54:01+00:00,202.0,6.86,196.0,7.48,13.29,47.59359,-54.27349
